Flag for Micronesia Weather past 2 weeks in Colonia, Yap, Micronesia

Now
83 °F

Cloudy.


Feels Like: 92 °F
Forecast: 81 / 92 °F
Wind: 7 mph from North

Location: Yap Island

Current Time: Jul 29, 2014 at 8:36:57 AM

Latest Report: Jul 29, 2014 at 7:56 AM


Visibility: 12 mi

Pressure: 29.79 "Hg

Humidity: 81%

Dew point: 77 °F

Location of ColoniaLocation

Historic Weather in Colonia — Graph

°F

Colonia temperature yesterday

Maximum temperature yesterday: 87 °F (at 1:54 PM)
Minimum temperature yesterday: 77 °F (at 5:51 AM)
Average temperature yesterday: 83 °F

Past Weeks' High & Low Weather Summary

 TemperatureHumidityPressure
High97 °F (Jul 19, 6:57 AM)95% (Jul 16, 5:50 AM)29.88 "Hg (Jul 16, 5:50 AM)
Low75 °F (Jul 15, 10:53 PM)63% (Jul 20, 11:51 AM)29.66 "Hg (Jul 25, 4:51 PM)
Average82 °F84%29.77 "Hg
* Reported Jul 14 6:53 AM — Jul 29 6:54 AM, Colonia, Weather by CustomWeather, © 2014

Note: Actual official high and low records may vary slightly from our data, if they occured in-between our weather recording intervals... More about our weather records

Advertising

Colonia weather history for previous 24 hours

 ConditionsComfort  
Time TempWeatherWind HumidityBarometerVisibility
6:54 AM
Jul 29
83 °FOvercast.8 mph82%29.78 "Hg12 mi
5:54 AM83 °FOvercast.10 mph81%29.76 "Hg12 mi
4:53 AM83 °FOvercast.12 mph79%29.76 "Hg12 mi
3:56 AM82 °FOvercast.13 mph82%29.76 "Hg12 mi
2:53 AM82 °FMostly cloudy.10 mph81%29.76 "Hg12 mi
1:54 AM82 °FMostly cloudy.9 mph83%29.78 "Hg12 mi
12:50 AM83 °FMostly cloudy.10 mph82%29.80 "Hg12 mi
11:50 PM
Jul 28
82 °FMostly cloudy.10 mph82%29.81 "Hg12 mi
10:50 PM83 °FMostly cloudy.12 mph80%29.81 "Hg12 mi
9:50 PM83 °FOvercast.14 mph82%29.81 "Hg12 mi
8:52 PM83 °FOvercast.9 mph78%29.79 "Hg12 mi
7:50 PM83 °FCloudy.9 mph78%29.77 "Hg12 mi
6:50 PM83 °FCloudy.10 mph78%29.75 "Hg12 mi
5:50 PM83 °FCloudy.14 mph79%29.74 "Hg12 mi
4:54 PM85 °FCloudy.10 mph75%29.72 "Hg12 mi
3:51 PM85 °FMore clouds than sun.10 mph77%29.73 "Hg12 mi
2:52 PM86 °FMore clouds than sun.12 mph77%29.75 "Hg12 mi
1:54 PM87 °FMore clouds than sun.14 mph73%29.76 "Hg12 mi
12:50 PM85 °FMore clouds than sun.14 mph76%29.78 "Hg12 mi
11:51 AM85 °FCloudy.14 mph77%29.78 "Hg12 mi
10:53 AM84 °FCloudy.9 mph80%29.80 "Hg12 mi
9:52 AM82 °FCloudy.9 mph83%29.81 "Hg12 mi
8:50 AM81 °FSprinkles. More clouds than sun.8 mph89%29.80 "Hg10 mi
Weather by CustomWeather, © 2014

See weather overviewHow to use our weather pages